Back to catalog

AYAME 1 DEB

LostHEO
NORAD 38683·DEBRIS·🇯🇵 Japan

Launched Feb 6, 1979 from Tanegashima Space Center

Loading…

Next Passes (next 24 hours)

TLE

StaleSource: Space-Track

Epoch: Apr 8, 2024, 02:48 UTC

1 38683U 79009F   24099.11734436 -.00000126  00000-0  00000+0 0  9995
2 38683   9.4515 325.5934 3725626  98.3948 304.4232  1.69513566 85493

Track AYAME 1 DEB in real time with AllMySat

Download on the App Store